Location: Blanot
(47.1713°N, 4.2340°E)
Time: 10:46:56
(UTC+00:00)

Cosmos 1733 Rocket - Pass Details

Date: 14 July 2020
Orbit: 604 x 628 km, 82.5° (Epoch: 05 August)

Event Time Altitude Azimuth Distance (km) Brightness Sun altitude
Exits shadow 01:29:33 15° 145° (SE) 1,644 4.9 -17.6°
Maximum altitude 01:32:26 31° 90° (E) 1,074 4.5 -17.4°
Drops below altitude 10° 01:36:15 10° 29° (NNE) 1,962 7.0 -17.1°
Sets 01:38:39 0° 19° (NNE) 2,872 8.2 -16.9°
